Regional Weather Roundup
Issued by NWS

Home | Current Version | Previous Version | Text Only | Print | Product List | Glossary On
Versions: 1 2 3 4 5 6 7 8 9 10 11 12 13 14 15 16 17 18 19 20 21 22 23 24 25 26 27 28 29 30 31 32 33 34 35 36 37 38 39 40 41 42 43 44 45 46 47 48 49 50
000
ASUS43 KLSX 100110
RWRMO

WEATHER SUMMARY FOR MISSOURI
NATIONAL WEATHER SERVICE SPRINGFIELD MO
700 PM CST FRI DEC 09 2016

NOTE: "FAIR" INDICATES FEW OR NO CLOUDS BELOW 12,000 FEET WITH NO
       SIGNIFICANT WEATHER AND/OR OBSTRUCTIONS TO VISIBILITY.
       CURRENT SKY AND/OR WEATHER CONDITIONS ARE NOT AVAILABLE FOR
       CHILLICOTHE AND FARMINGTON.

MOZ001>031-035>038-043-044-053-054-100200-
...NORTHERN AND WESTERN MISSOURI...

CITY           SKY/WX    TMP DP  RH WIND       PRES   REMARKS
KANSAS CTY INT CLOUDY    27  10  49 SE8       30.52S WCI  19
KANSAS C DTWN  CLOUDY    28  11  48 SE5       30.54F WCI  23
LEE`S SUMMIT   CLOUDY    26  11  52 SE7       30.53F WCI  18
ST JOSEPH      CLOUDY    26  10  50 SE7       30.53S WCI  18
CHILLICOTHE      N/A     25   8  48 CALM      30.58S
KIRKSVILLE     CLOUDY    24  13  62 CALM      30.56R

$$
MOZ066>068-077>081-088>096-101>105-100200-
...SOUTHWEST MISSOURI...

CITY           SKY/WX    TMP DP  RH WIND       PRES   REMARKS
SPRINGFIELD    CLOUDY    31  11  43 CALM      30.51R
JOPLIN         CLOUDY    31  16  54 CALM      30.52R
BRANSON        CLOUDY    28  14  54 E5        30.51S WCI  23

$$
MOZ032>034-039>042-045>050-055>058-069>072-100200-
...CENTRAL MISSOURI...

CITY           SKY/WX    TMP DP  RH WIND       PRES   REMARKS
COLUMBIA       CLOUDY    25   8  48 CALM      30.56R
JEFFERSON CITY CLOUDY    24  13  62 CALM      30.58S
ROLLA          CLEAR     20   9  62 CALM      30.53R
SEDALIA        CLOUDY    27   9  46 CALM      30.57S
WHITEMAN AFB   CLOUDY    26  12  55 CALM      30.55R
WARRENSBURG    CLOUDY    28  12  50 CALM      30.56S
OSAGE BEACH    MOCLDY    24  10  55 NE3       30.57R

$$
MOZ051-052-059>065-100200-
...EAST CENTRAL MISSOURI...

CITY           SKY/WX    TMP DP  RH WIND       PRES   REMARKS
ST LOUIS INTL  CLEAR     25  12  58 N3        30.57S
SPIRIT OF STL  CLEAR     21  14  74 CALM      30.58S
ST CHARLES     CLEAR     23  15  71 CALM      30.58S

$$
MOZ072>076-082>087-097>100-106>115-100200-
...SOUTH CENTRAL AND SOUTHEAST MISSOURI...

CITY           SKY/WX    TMP DP  RH WIND       PRES   REMARKS
CAPE GIRARDEAU CLEAR     25  17  72 E5        30.58R WCI  19
FARMINGTON     CLEAR     23  13  65 CALM      30.54S
POPLAR BLUFF   CLEAR     26  19  74 CALM      30.57F
WEST PLAINS    CLEAR     24  11  57 CALM      30.53R

$$




USA.gov is the U.S. government's official web portal to all federal, state and local government web resources and services.